Weather History for Lamezia Terme, Italy

Change the Weather History Date:

Tuesday, October 2, 2012

  Actual Average Record
Temperature  
Mean Temperature 74 °F -  
Max Temperature 78 °F 70 °F 87 °F (2003)
Min Temperature 71 °F 55 °F 50 °F (2005)
Cooling Degree Days 10    
Growing Degree Days 24 (Base 50)    
Moisture  
Dew Point 67 °F    
Average Humidity 76    
Maximum Humidity 94    
Minimum Humidity 65    
Precipitation  
Precipitation 0.00 in - - ()
Sea Level Pressure  
Sea Level Pressure 30.05 in    
Wind  
Wind Speed 11 mph ()    
Max Wind Speed 17 mph    
Max Gust Speed -    
Visibility 6.1 miles    
Events Rain    
Averages and records for this station are not official NWS values.
T = Trace of Precipitation, MM = Missing Value Source: Averaged Metar Reports

Daily Weather History Graph

Daily Weather History Graph

Search for Another Location

Airport:

Trip Planner

Search our weather history database for the weather conditions in past years. The results will help you decide how hot, cold, wet, or windy it might be!

Date:

Astronomy

Oct. 02, 2012 Rise Set
Actual Time 6:52 AM CEST 6:35 PM CEST
Civil Twilight 6:25 AM CEST 7:02 PM CEST
Nautical Twilight 5:54 AM CEST 7:33 PM CEST
Astronomical Twilight 5:23 AM CEST 8:04 PM CEST
Moon 7:39 PM CEST (10/2) 9:00 AM CEST (10/2)
Length of Visible Light 12h 36m
Length of Day
11h 43m
Waning Gibbous, 95% of the Moon is Illuminated
Oct 2
Waning Gibbous
Oct 8
Last Quarter
Oct 15
New
Oct 22
First Quarter
Oct 29
Full

Hourly Weather History & Observations

Time (CEST) Temp. Dew Point Humidity Pressure Visibility Wind Dir Wind Speed Gust Speed Precip Events Conditions
12:50 AM 75.2 °F 73.4 °F 94% 30.04 in 5.6 mi WSW 9.2 mph - N/A   Scattered Clouds
1:50 AM 75.2 °F 71.6 °F 89% 30.04 in 4.3 mi West 12.7 mph - N/A Rain Light Rain
2:50 AM 75.2 °F 69.8 °F 83% 30.04 in 6.2 mi West 17.3 mph - N/A   Mostly Cloudy
3:50 AM 73.4 °F 68.0 °F 83% 30.04 in 6.2 mi WNW 15.0 mph - N/A   Scattered Clouds
4:50 AM 73.4 °F 66.2 °F 78% 30.01 in 6.2 mi WNW 10.4 mph - N/A   Scattered Clouds
5:50 AM 73.4 °F 66.2 °F 78% 30.01 in 6.2 mi WNW 11.5 mph - N/A   Partly Cloudy
6:50 AM 71.6 °F 66.2 °F 83% 30.01 in 6.2 mi WNW 9.2 mph - N/A   Partly Cloudy
7:50 AM 73.4 °F 68.0 °F 83% 30.04 in 6.2 mi West 5.8 mph - N/A   Scattered Clouds
8:50 AM 73.4 °F 66.2 °F 78% 30.04 in 6.2 mi WNW 10.4 mph - N/A   Scattered Clouds
9:50 AM 75.2 °F 68.0 °F 78% 30.06 in 6.2 mi WNW 11.5 mph - N/A   Partly Cloudy
10:50 AM 77.0 °F 66.2 °F 69% 30.06 in 6.2 mi West 13.8 mph - N/A   Partly Cloudy
11:50 AM 77.0 °F 66.2 °F 69% 30.06 in 6.2 mi West 12.7 mph - N/A   Scattered Clouds
12:50 PM 77.0 °F 66.2 °F 69% 30.06 in 6.2 mi West 13.8 mph - N/A   Scattered Clouds
1:50 PM 78.8 °F 66.2 °F 65% 30.06 in 6.2 mi West 16.1 mph - N/A   Partly Cloudy
2:50 PM 77.0 °F 66.2 °F 69% 30.06 in 6.2 mi West 17.3 mph - N/A   Partly Cloudy
3:50 PM 77.0 °F 68.0 °F 74% 30.06 in 6.2 mi West 12.7 mph - N/A   Scattered Clouds
4:50 PM 77.0 °F 68.0 °F 74% 30.04 in 6.2 mi West 16.1 mph - N/A   Partly Cloudy
5:50 PM 75.2 °F 66.2 °F 73% 30.06 in 6.2 mi WNW 15.0 mph - N/A   Partly Cloudy
6:50 PM 73.4 °F 64.4 °F 73% 30.06 in 6.2 mi West 17.3 mph - N/A   Partly Cloudy
7:50 PM 73.4 °F 64.4 °F 73% 30.06 in 6.2 mi WNW 9.2 mph - N/A   Scattered Clouds
8:50 PM 71.6 °F 62.6 °F 73% 30.09 in 6.2 mi West 13.8 mph - N/A   Scattered Clouds
9:50 PM 71.6 °F 62.6 °F 73% 30.09 in 6.2 mi West 9.2 mph - N/A   Partly Cloudy
10:50 PM 71.6 °F 62.6 °F 73% 30.09 in 6.2 mi WNW 5.8 mph - N/A   Partly Cloudy
11:50 PM 71.6 °F 62.6 °F 73% 30.09 in 6.2 mi WNW 11.5 mph - N/A   Partly Cloudy